Regional Weather Roundup
Issued by NWS Newport/Morehead, NC

Current Version | Previous Version | Graphics & Text | Print | Product List | Glossary On
Versions: 1 2 3 4 5 6 7 8 9 10 11 12 13 14 15 16 17 18 19 20 21 22 23 24 25 26 27 28 29 30 31 32 33 34 35 36 37 38 39 40 41 42 43 44 45 46 47 48 49 50
000 ASUS42 KMHX 142125 RWRMHX WEATHER ROUNDUP FOR EASTERN NORTH CAROLINA NATIONAL WEATHER SERVICE NEWPORT/MOREHEAD CITY NC 400 PM EST THU DEC 14 2017 NOTE: "FAIR" INDICATES FEW OR NO CLOUDS BELOW 12,000 FEET WITH NO SIGNIFICANT WEATHER AND/OR OBSTRUCTIONS TO VISIBILITY NCZ015>017-031-032-045>047-102-103-142200- NORTH COAST CITY SKY/WX TMP DP RH WIND PRES REMARKS EDENTON CLEAR 55 29 37 NW5 29.89R ELIZABETH CITY CLEAR 55 32 41 NW3 29.88R KITTY HAWK CLEAR 50 32 49 N6 29.88R MANTEO CLEAR 50 30 46 NW3 29.89R $$ NCZ045>047-081-094-103-104-142200- CENTRAL COAST CITY SKY/WX TMP DP RH WIND PRES REMARKS FRISCO CLEAR 54 34 46 W3 29.89R $$ NCZ095-097-098-100-101-142200- SOUTHERN COAST CITY SKY/WX TMP DP RH WIND PRES REMARKS BEAUFORT CLEAR 54 41 61 SW7 29.88R CEDAR ISLAND NOT AVBL JACKSONVILLE PTCLDY 59 32 36 W6 29.87R PINEY ISLAND N/A N/A N/A N/A E6 29.88R WILMINGTON SUNNY 59 30 33 W9 29.88R $$ NCZ011>013-027>030-043-044-078>080-089-090>093-098-142200- COASTAL PLAIN CITY SKY/WX TMP DP RH WIND PRES REMARKS AHOSKIE CLEAR 52 28 39 CALM 29.89R CLINTON CLEAR 57 32 38 SW3 29.89R ELIZABETHTOWN NOT AVBL GOLDSBORO CLEAR 59 26 28 NW8 29.85R GREENVILLE CLEAR 55 27 33 NW3 29.90R HAVELOCK CLEAR 57 32 38 SW7 29.88R KENANSVILLE CLEAR 57 30 35 W5 29.88R KINSTON CLEAR 57 27 30 W3 29.88R NEW BERN CLEAR 56 32 40 NW6 29.88R RICHLANDS CLEAR 58 31 35 SW5 29.88R ROCKY MOUNT CLEAR 54 26 34 N8 29.88R WASHINGTON CLEAR 56 26 32 NW5 29.88R WHITEVILLE SUNNY 57 32 37 CALM 29.88R $$ AMZ130-135-150-152-154-156-158-170-250-252-270-ANZ085-086-088-633-658-670-142200- MARINE OBSERVATIONS STATION/POSITION TIME TEMP WIND PRES WAVE SWELL AIR SEA DIR/SP/G HT/PER HT/PER (UTC) (F) (DEG/KT/KT) (MB) (FT/S) (FT/S) CHESAPEAKE LIGHT NOT AVBL 64 E VA BEACH 1950 49 61 340/ 17/ 21 1011.3 6/ 5 2/ 8 DUCK 1954 53 53 270/ 4/ 7 1010.4 2 E DUCK 2000 55 N/A 2/ 3 OREGON INLET 1954 53 42 300/ 6/ 9 1011.0 13E OREGON INLT 1948 63 N/A 4/ 9 3/ 9 HATTERAS CG 1954 51 51 260/ 5/ 6 1011.0 DIAMOND BUOY 2010 56 74 300/ 16/ 19 1011.8 CAPE LOOKOUT 2000 240/ 8/ 10 1011.5 BEAUFORT LAB 1954 57 50 220/ 3/ 7 1011.0 30 SE NEW RVR IN NOT AVBL 30 SE NEW RVR IN 2000 65 N/A 6/ 9 27 SE WRIGHTSVLE NOT AVBL 5 SE WRIGHTSVLE 2008 55 56 210/ 10/ 12 1011.0 225 S CAPE HAT 1950 68 74 260/ 21/ 25 1013.2 10/ 8 2/13 41 SE CHARLESTON 2010 73 230/ 19/ 25 1012.6 $$

USA.gov is the U.S. government's official web portal to all federal, state and local government web resources and services.